Regional Weather Roundup
Issued by NWS Green Bay, WI

Home | Current Version | Previous Version | Graphics & Text | Print | Product List | Glossary Off
Versions: 1 2 3 4 5 6 7 8 9 10 11 12 13 14 15 16 17 18 19 20 21 22 23 24 25 26 27 28 29 30 31 32 33 34 35 36 37 38 39 40 41 42 43 44 45 46 47 48 49 50

000
ASUS43 KGRB 211201
RWRGRB

NORTH-CENTRAL AND NORTHEAST WISCONSIN REGIONAL WEATHER ROUNDUP
NATIONAL WEATHER SERVICE GREEN BAY WI
700 AM CDT SAT OCT 21 2017

WIZ005-009-010>012-018-019-211300-
NORTH CENTRAL WISCONSIN

CITY           SKY/WX    TMP DP  RH WIND       PRES   REMARKS
IRONWOOD       CLOUDY    61  47  59 S15G22    29.78S
MANITOWISH WTR NOT AVBL
ARBOR VITAE    NOT AVBL
EAGLE RIVER    NOT AVBL
LAND O LAKES   NOT AVBL
RHINELANDER    CLOUDY    59  46  62 S8        29.89S
PHILLIPS       NOT AVBL
ANTIGO         NOT AVBL
TOMAHAWK       NOT AVBL
MERRILL        NOT AVBL
$$

WIZ013-073-211300-
NORTHEAST WISCONSIN

CITY           SKY/WX    TMP DP  RH WIND       PRES   REMARKS
IRON MOUNTAIN  PTCLDY    54  46  74 SE6       29.92S
MARINETTE      CLOUDY    59  49  69 S7        29.96S
$$

WIZ017-030-035>037-045-211300-
CENTRAL WISCONSIN

CITY           SKY/WX    TMP DP  RH WIND       PRES   REMARKS
MEDFORD        NOT AVBL
WAUSAU         CLEAR     56  46  69 SE6       29.88F
MOSINEE        PTCLDY    55  48  76 SE9       29.90F
MARSHFIELD     PTCLDY    57  47  69 S8        29.86F
WISC RAPIDS    PTCLDY    60  49  66 S10       29.90F
STEVENS POINT  NOT AVBL
WAUPACA        NOT AVBL
SHAWANO        NOT AVBL
CLINTONVILLE   NOT AVBL
WAUTOMA        PTCLDY    58  50  75 S6        29.93S
$$

WIZ038-039-048-051-211300-
FOX VALLEY

CITY           SKY/WX    TMP DP  RH WIND       PRES   REMARKS
NWS GREEN BAY  PTCLDY    60  50  69 S9        29.96S
APPLETON       MOCLDY    59  45  58 S9        29.94S
OSHKOSH        PTCLDY    59  49  69 S15       29.94F
FOND DU LAC    PTCLDY    61  47  59 S10       29.95F
$$

WIZ022-050-052-211300-
EAST CENTRAL WISCONSIN

CITY           SKY/WX    TMP DP  RH WIND       PRES   REMARKS
EPHRAIM        NOT AVBL
WASHINGTON ISL NOT AVBL
STURGEON BAY   PTCLDY    57  52  83 S12       29.98S
MANITOWOC      CLOUDY    57  51  80 S7        29.99F
SHEBOYGAN      CLOUDY    58  50  75 S9        29.98F
$$

LMZ563-521-522-541>543-211300-
LAKESHORE

STATION/POSITION TIME  TEMP    WIND        PRES    VSBY  WAVE
                       AIR SEA DIR/SP/G                  HT/PER
                 (UTC) (F)     (DEG/KT/KT) (MB)    (MI)  (FT/S)
SHEBOYGAN LKSHOR 1100   55     180/ 17/ 17 1015.4F
KEWAUNEE LKSHORE 1130   53     180/ 10/ 11 1014.9R
NORTHPORT PIER   1140   58     170/  8/ 16 1014.9S
N MID LAKE BUOY  1050   61 58  180/ 17/ 21 1015.5F         5/ 6
S GREEN BAY BUOY 1130   60 58  170/ 10/ 12 1014.3R
SISTER BAY LKSHO 1119   59     160/ 15/ 17   N/A
MENOMINEE LKSHOR 1130   59     170/ 11/ 15 1014.0R
$$



USA.gov is the U.S. government's official web portal to all federal, state and local government web resources and services.